Time,TemperatureF,DewpointF,PressureIn,WindDirection,WindDirectionDegrees,WindSpeedMPH,WindSpeedGustMPH,Humidity,HourlyPrecipIn,Conditions,Clouds,dailyrainin,SolarRadiationWatts/m^2,SoftwareType,DateUTC
2013-03-04 00:01:00,52.0,40.0,-100.00,SSE,168,7.0,12.0,64,0.00,,,0.00,0.000000,,2013-03-04 06:01:00,
2013-03-04 00:32:00,51.0,42.0,-100.00,South,170,5.0,11.0,71,0.00,,,0.00,0.000000,,2013-03-04 06:32:00,
2013-03-04 00:42:00,51.0,42.0,-100.00,South,170,5.0,11.0,71,0.00,,,0.00,0.000000,,2013-03-04 06:42:00,
2013-03-04 00:52:00,51.0,42.0,-100.00,South,170,5.0,11.0,71,0.00,,,0.00,0.000000,,2013-03-04 06:52:00,
2013-03-04 01:01:00,51.0,42.0,-100.00,South,170,5.0,11.0,71,0.00,,,0.00,0.000000,,2013-03-04 07:01:00,
2013-03-04 01:32:00,50.0,43.0,-100.00,SSE,167,4.0,10.0,76,0.00,,,0.00,0.000000,,2013-03-04 07:32:00,
2013-03-04 01:42:00,50.0,43.0,-100.00,SSE,167,4.0,10.0,76,0.00,,,0.00,0.000000,,2013-03-04 07:42:00,
2013-03-04 01:52:00,50.0,43.0,-100.00,SSE,167,4.0,10.0,76,0.00,,,0.00,0.000000,,2013-03-04 07:52:00,
2013-03-04 02:02:00,50.0,43.0,-100.00,SSE,167,4.0,10.0,76,0.00,,,0.00,0.000000,,2013-03-04 08:02:00,
2013-03-04 02:32:00,48.0,43.0,-100.00,South,170,3.0,7.0,82,0.00,,,0.00,0.000000,,2013-03-04 08:32:00,
2013-03-04 02:42:00,48.0,43.0,-100.00,South,170,3.0,7.0,82,0.00,,,0.00,0.000000,,2013-03-04 08:42:00,
2013-03-04 02:52:00,48.0,43.0,-100.00,South,170,3.0,7.0,82,0.00,,,0.00,0.000000,,2013-03-04 08:52:00,
2013-03-04 03:01:00,48.0,43.0,-100.00,South,170,3.0,7.0,82,0.00,,,0.00,0.000000,,2013-03-04 09:01:00,
2013-03-04 03:22:00,48.0,45.0,-100.00,South,171,3.0,6.0,88,0.00,,,0.00,0.000000,,2013-03-04 09:22:00,
2013-03-04 03:32:00,48.0,45.0,-100.00,South,171,3.0,6.0,88,0.00,,,0.00,0.000000,,2013-03-04 09:32:00,
2013-03-04 03:42:00,48.0,45.0,-100.00,South,171,3.0,6.0,88,0.00,,,0.00,0.000000,,2013-03-04 09:42:00,
2013-03-04 03:52:00,48.0,45.0,-100.00,South,171,3.0,6.0,88,0.00,,,0.00,0.000000,,2013-03-04 09:52:00,
2013-03-04 04:01:00,48.0,45.0,-100.00,South,171,3.0,6.0,88,0.00,,,0.00,0.000000,,2013-03-04 10:01:00,
2013-03-04 04:32:00,49.0,46.0,-100.00,SSE,168,4.0,8.0,89,0.00,,,0.00,0.000000,,2013-03-04 10:32:00,
2013-03-04 04:42:00,49.0,46.0,-100.00,SSE,168,4.0,8.0,89,0.00,,,0.00,0.000000,,2013-03-04 10:42:00,
2013-03-04 04:52:00,49.0,46.0,-100.00,SSE,168,4.0,8.0,89,0.00,,,0.00,0.000000,,2013-03-04 10:52:00,
2013-03-04 05:01:00,49.0,46.0,-100.00,SSE,168,4.0,8.0,89,0.00,,,0.00,0.000000,,2013-03-04 11:01:00,
2013-03-04 05:22:00,49.0,47.0,-100.00,South,179,3.0,7.0,92,0.00,,,0.00,0.000000,,2013-03-04 11:22:00,
2013-03-04 05:32:00,49.0,47.0,-100.00,South,179,3.0,7.0,92,0.00,,,0.00,0.000000,,2013-03-04 11:32:00,
2013-03-04 05:42:00,49.0,47.0,-100.00,South,179,3.0,7.0,92,0.00,,,0.00,0.000000,,2013-03-04 11:42:00,
2013-03-04 05:52:00,49.0,47.0,-100.00,South,179,3.0,7.0,92,0.00,,,0.00,0.000000,,2013-03-04 11:52:00,
2013-03-04 06:01:00,49.0,47.0,-100.00,South,179,3.0,7.0,92,0.00,,,0.00,0.000000,,2013-03-04 12:01:00,
2013-03-04 06:22:00,50.0,49.0,-100.00,SSE,160,4.0,6.0,95,0.00,,,0.00,0.000000,,2013-03-04 12:22:00,
2013-03-04 06:32:00,50.0,49.0,-100.00,SSE,160,4.0,6.0,95,0.00,,,0.00,0.000000,,2013-03-04 12:32:00,
2013-03-04 06:42:00,50.0,49.0,-100.00,SSE,160,4.0,6.0,95,0.00,,,0.00,0.000000,,2013-03-04 12:42:00,
2013-03-04 06:53:00,50.0,49.0,-100.00,SSE,160,4.0,6.0,95,0.00,,,0.00,0.000000,,2013-03-04 12:53:00,
2013-03-04 07:02:00,50.0,49.0,-100.00,SSE,160,4.0,6.0,95,0.00,,,0.00,0.000000,,2013-03-04 13:02:00,
2013-03-04 07:22:00,53.0,50.0,-100.00,South,181,6.0,12.0,91,0.00,,,0.00,9.000000,,2013-03-04 13:22:00,
2013-03-04 07:32:00,53.0,50.0,-100.00,South,181,6.0,12.0,91,0.00,,,0.00,9.000000,,2013-03-04 13:32:00,
2013-03-04 07:42:00,53.0,50.0,-100.00,South,181,6.0,12.0,91,0.00,,,0.00,9.000000,,2013-03-04 13:42:00,
2013-03-04 07:52:00,53.0,50.0,-100.00,South,181,6.0,12.0,91,0.00,,,0.00,9.000000,,2013-03-04 13:52:00,
2013-03-04 08:01:00,53.0,50.0,-100.00,South,181,6.0,12.0,91,0.00,,,0.00,9.000000,,2013-03-04 14:01:00,
2013-03-04 08:32:00,57.0,52.0,-100.00,South,178,6.0,12.0,83,0.00,,,0.00,129.000000,,2013-03-04 14:32:00,
2013-03-04 08:42:00,57.0,52.0,-100.00,South,178,6.0,12.0,83,0.00,,,0.00,129.000000,,2013-03-04 14:42:00,
2013-03-04 08:52:00,57.0,52.0,-100.00,South,178,6.0,12.0,83,0.00,,,0.00,129.000000,,2013-03-04 14:52:00,
2013-03-04 09:01:00,57.0,52.0,-100.00,South,178,6.0,12.0,83,0.00,,,0.00,129.000000,,2013-03-04 15:01:00,
2013-03-04 09:32:00,62.0,54.0,-100.00,SSW,204,6.0,17.0,75,0.00,,,0.00,312.000000,,2013-03-04 15:32:00,
2013-03-04 09:42:00,62.0,54.0,-100.00,SSW,204,6.0,17.0,75,0.00,,,0.00,312.000000,,2013-03-04 15:42:00,
2013-03-04 09:52:00,62.0,54.0,-100.00,SSW,204,6.0,17.0,75,0.00,,,0.00,312.000000,,2013-03-04 15:52:00,
2013-03-04 10:02:00,62.0,54.0,-100.00,SSW,204,6.0,17.0,75,0.00,,,0.00,312.000000,,2013-03-04 16:02:00,
2013-03-04 10:32:00,66.0,54.0,-100.00,SSW,213,9.0,21.0,66,0.00,,,-99.99,422.000000,,2013-03-04 16:32:00,
2013-03-04 10:42:00,66.0,54.0,-100.00,SSW,213,9.0,21.0,66,0.00,,,-99.99,422.000000,,2013-03-04 16:42:00,
2013-03-04 10:52:00,66.0,54.0,-100.00,SSW,213,9.0,21.0,66,0.00,,,-99.99,422.000000,,2013-03-04 16:52:00,
2013-03-04 11:02:00,66.0,54.0,-100.00,SSW,213,9.0,21.0,66,0.00,,,-99.99,422.000000,,2013-03-04 17:02:00,
2013-03-04 11:22:00,71.0,55.0,-100.00,SSW,206,10.0,21.0,57,0.00,,,0.00,721.000000,,2013-03-04 17:22:00,
2013-03-04 11:32:00,71.0,55.0,-100.00,SSW,206,10.0,21.0,57,0.00,,,0.00,721.000000,,2013-03-04 17:32:00,
2013-03-04 11:42:00,71.0,55.0,-100.00,SSW,206,10.0,21.0,57,0.00,,,0.00,721.000000,,2013-03-04 17:42:00,
2013-03-04 11:52:00,71.0,55.0,-100.00,SSW,206,10.0,21.0,57,0.00,,,0.00,721.000000,,2013-03-04 17:52:00,
2013-03-04 12:01:00,71.0,55.0,-100.00,SSW,206,10.0,21.0,57,0.00,,,0.00,721.000000,,2013-03-04 18:01:00,
2013-03-04 12:32:00,74.0,55.0,-100.00,SSW,212,9.0,19.0,51,0.00,,,0.00,819.000000,,2013-03-04 18:32:00,
2013-03-04 12:42:00,74.0,55.0,-100.00,SSW,212,9.0,19.0,51,0.00,,,0.00,819.000000,,2013-03-04 18:42:00,
2013-03-04 12:52:00,74.0,55.0,-100.00,SSW,212,9.0,19.0,51,0.00,,,0.00,819.000000,,2013-03-04 18:52:00,
2013-03-04 13:02:00,74.0,55.0,-100.00,SSW,212,9.0,19.0,51,0.00,,,0.00,819.000000,,2013-03-04 19:02:00,
2013-03-04 13:32:00,76.0,54.0,-100.00,SSW,203,9.0,24.0,47,0.00,,,0.00,715.000000,,2013-03-04 19:32:00,
2013-03-04 13:42:00,76.0,54.0,-100.00,SSW,203,9.0,24.0,47,0.00,,,0.00,715.000000,,2013-03-04 19:42:00,
2013-03-04 13:52:00,76.0,54.0,-100.00,SSW,203,9.0,24.0,47,0.00,,,0.00,715.000000,,2013-03-04 19:52:00,
2013-03-04 14:01:00,76.0,54.0,-100.00,SSW,203,9.0,24.0,47,0.00,,,0.00,715.000000,,2013-03-04 20:01:00,
2013-03-04 14:32:00,76.0,51.0,-100.00,SSW,210,8.0,19.0,42,0.00,,,0.00,682.000000,,2013-03-04 20:32:00,
2013-03-04 14:42:00,76.0,51.0,-100.00,SSW,210,8.0,19.0,42,0.00,,,0.00,682.000000,,2013-03-04 20:42:00,
2013-03-04 14:52:00,76.0,51.0,-100.00,SSW,210,8.0,19.0,42,0.00,,,0.00,682.000000,,2013-03-04 20:52:00,
2013-03-04 15:02:00,76.0,51.0,-100.00,SSW,210,8.0,19.0,42,0.00,,,0.00,682.000000,,2013-03-04 21:02:00,
2013-03-04 15:32:00,77.0,53.0,-100.00,SSW,195,8.0,21.0,43,0.00,,,0.00,292.000000,,2013-03-04 21:32:00,
2013-03-04 15:43:00,77.0,53.0,-100.00,SSW,195,8.0,21.0,43,0.00,,,0.00,292.000000,,2013-03-04 21:43:00,
2013-03-04 15:53:00,77.0,53.0,-100.00,SSW,195,8.0,21.0,43,0.00,,,0.00,292.000000,,2013-03-04 21:53:00,
2013-03-04 16:02:00,77.0,53.0,-100.00,SSW,195,8.0,21.0,43,0.00,,,0.00,292.000000,,2013-03-04 22:02:00,
2013-03-04 16:22:00,78.0,52.0,-100.00,SSW,203,7.0,18.0,41,0.00,,,0.00,383.000000,,2013-03-04 22:22:00,
2013-03-04 16:32:00,78.0,52.0,-100.00,SSW,203,7.0,18.0,41,0.00,,,0.00,383.000000,,2013-03-04 22:32:00,
2013-03-04 16:43:00,78.0,52.0,-100.00,SSW,203,7.0,18.0,41,0.00,,,0.00,383.000000,,2013-03-04 22:43:00,
2013-03-04 16:52:00,78.0,52.0,-100.00,SSW,203,7.0,18.0,41,0.00,,,0.00,383.000000,,2013-03-04 22:52:00,
2013-03-04 17:01:00,78.0,52.0,-100.00,SSW,203,7.0,18.0,41,0.00,,,0.00,383.000000,,2013-03-04 23:01:00,
2013-03-04 17:32:00,77.0,52.0,-100.00,SSW,199,6.0,17.0,42,0.00,,,0.00,186.000000,,2013-03-04 23:32:00,
2013-03-04 17:42:00,77.0,52.0,-100.00,SSW,199,6.0,17.0,42,0.00,,,0.00,186.000000,,2013-03-04 23:42:00,
2013-03-04 17:52:00,77.0,52.0,-100.00,SSW,199,6.0,17.0,42,0.00,,,0.00,186.000000,,2013-03-04 23:52:00,
2013-03-04 18:02:00,77.0,52.0,-100.00,SSW,199,6.0,17.0,42,0.00,,,0.00,186.000000,,2013-03-05 00:02:00,
2013-03-04 18:32:00,76.0,52.0,-100.00,SSW,199,5.0,18.0,44,0.00,,,-99.99,68.000000,,2013-03-05 00:32:00,
2013-03-04 18:42:00,76.0,52.0,-100.00,SSW,199,5.0,18.0,44,0.00,,,-99.99,68.000000,,2013-03-05 00:42:00,
2013-03-04 18:52:00,76.0,52.0,-100.00,SSW,199,5.0,18.0,44,0.00,,,-99.99,68.000000,,2013-03-05 00:52:00,
2013-03-04 19:01:00,76.0,52.0,-100.00,SSW,199,5.0,18.0,44,0.00,,,-99.99,68.000000,,2013-03-05 01:01:00,
2013-03-04 19:33:00,73.0,53.0,-100.00,South,177,6.0,14.0,50,0.00,,,0.00,3.000000,,2013-03-05 01:33:00,
2013-03-04 19:42:00,73.0,53.0,-100.00,South,177,6.0,14.0,50,0.00,,,0.00,3.000000,,2013-03-05 01:42:00,
2013-03-04 19:52:00,73.0,53.0,-100.00,South,177,6.0,14.0,50,0.00,,,0.00,3.000000,,2013-03-05 01:52:00,
2013-03-04 20:01:00,73.0,53.0,-100.00,South,177,6.0,14.0,50,0.00,,,0.00,3.000000,,2013-03-05 02:01:00,
2013-03-04 20:32:00,68.0,57.0,-100.00,SSE,167,7.0,14.0,67,0.00,,,0.00,0.000000,,2013-03-05 02:32:00,
2013-03-04 20:42:00,68.0,57.0,-100.00,SSE,167,7.0,14.0,67,0.00,,,0.00,0.000000,,2013-03-05 02:42:00,
2013-03-04 20:52:00,68.0,57.0,-100.00,SSE,167,7.0,14.0,67,0.00,,,0.00,0.000000,,2013-03-05 02:52:00,
2013-03-04 21:02:00,68.0,57.0,-100.00,SSE,167,7.0,14.0,67,0.00,,,0.00,0.000000,,2013-03-05 03:02:00,
2013-03-04 21:22:00,67.0,58.0,-100.00,South,170,6.0,16.0,73,0.00,,,0.00,0.000000,,2013-03-05 03:22:00,
2013-03-04 21:32:00,67.0,58.0,-100.00,South,170,6.0,16.0,73,0.00,,,0.00,0.000000,,2013-03-05 03:32:00,
2013-03-04 21:42:00,67.0,58.0,-100.00,South,170,6.0,16.0,73,0.00,,,0.00,0.000000,,2013-03-05 03:42:00,
2013-03-04 21:52:00,67.0,58.0,-100.00,South,170,6.0,16.0,73,0.00,,,0.00,0.000000,,2013-03-05 03:52:00,
2013-03-04 22:01:00,67.0,58.0,-100.00,South,170,6.0,16.0,73,0.00,,,0.00,0.000000,,2013-03-05 04:01:00,
2013-03-04 22:32:00,65.0,58.0,-100.00,South,171,6.0,11.0,77,0.00,,,0.00,0.000000,,2013-03-05 04:32:00,
2013-03-04 22:42:00,65.0,58.0,-100.00,South,171,6.0,11.0,77,0.00,,,0.00,0.000000,,2013-03-05 04:42:00,
2013-03-04 22:52:00,65.0,58.0,-100.00,South,171,6.0,11.0,77,0.00,,,0.00,0.000000,,2013-03-05 04:52:00,
2013-03-04 23:02:00,65.0,58.0,-100.00,South,171,6.0,11.0,77,0.00,,,0.00,0.000000,,2013-03-05 05:02:00,
2013-03-04 23:22:00,63.0,57.0,-100.00,SSE,162,3.0,10.0,82,0.00,,,0.00,0.000000,,2013-03-05 05:22:00,
2013-03-04 23:32:00,63.0,57.0,-100.00,SSE,162,3.0,10.0,82,0.00,,,0.00,0.000000,,2013-03-05 05:32:00,
2013-03-04 23:42:00,63.0,57.0,-100.00,SSE,162,3.0,10.0,82,0.00,,,0.00,0.000000,,2013-03-05 05:42:00,
2013-03-04 23:52:00,63.0,57.0,-100.00,SSE,162,3.0,10.0,82,0.00,,,0.00,0.000000,,2013-03-05 05:52:00,